Riverside, CA

8:49 PM PST on February 08, 2016 (GMT -0800)
March Air Reserve Base

Weather History for KRIV - December, 2012

Change the Weather History Date:

Monday, December 3, 2012

  Actual Average (KRAL) Record (KRAL)
Temperature  
Mean Temperature 59 °F 56 °F  
Max Temperature 67 °F 68 °F 94 °F (1958)
Min Temperature 51 °F 43 °F 29 °F (1948)
Degree Days  
Heating Degree Days 6 9  
Month to date heating degree days 27  
Since 1 July heating degree days 227  
Cooling Degree Days 0 0  
Month to date cooling degree days 0  
Year to date cooling degree days 1754  
Growing Degree Days 9 (Base 50)    
Moisture  
Dew Point 56 °F    
Average Humidity 98    
Maximum Humidity 100    
Minimum Humidity 76    
Precipitation  
Precipitation 0.02 in 0.04 in 2.08 in (1966)
Month to date precipitation 0.11  
Year to date precipitation 10.98  
Sea Level Pressure  
Sea Level Pressure 30.16 in    
Wind  
Wind Speed 4 mph (SSE)    
Max Wind Speed 10 mph    
Max Gust Speed -    
Visibility 7 miles    
Events Fog , Rain    
T = Trace of Precipitation, MM = Missing Value Source: NWS Daily Summary

Daily Weather History Graph

Daily Weather History Graph

Search for Another Location

Airport or City:

Trip Planner

Search our weather history database for the weather conditions in past years. The results will help you decide how hot, cold, wet, or windy it might be!

Date:

Astronomy

Dec. 03, 2012 Rise Set
Actual Time 6:38 AM PST 4:39 PM PST
Civil Twilight 6:10 AM PST 5:07 PM PST
Nautical Twilight 5:39 AM PST 5:38 PM PST
Astronomical Twilight 5:09 AM PST 6:08 PM PST
Moon 9:23 PM PST (12/3) 10:10 AM PST (12/3)
Length of Visible Light 10h 56m
Length of Day
10h 01m
Waning Gibbous, 77% of the Moon is Illuminated
Dec 3
Waning Gibbous
Dec 6
Last Quarter
Dec 13
New
Dec 19
First Quarter
Dec 28
Full

Hourly Weather History & Observations

Time (PST) Temp. Dew Point Humidity Pressure Visibility Wind Dir Wind Speed Gust Speed Precip Events Conditions
12:03 AM 55.4 °F 55.4 °F 100% 30.13 in 10.0 mi South 2.3 mph - N/A   Overcast
12:13 AM 55.4 °F 55.4 °F 100% 30.13 in 10.0 mi South 3.5 mph - N/A   Overcast
12:18 AM 55.4 °F 55.4 °F 100% 30.13 in 8.0 mi South 3.5 mph - N/A   Overcast
12:23 AM 55.4 °F 55.4 °F 100% 30.13 in 7.0 mi South 3.5 mph - N/A Rain Light Rain
12:33 AM 55.4 °F 55.4 °F 100% 30.12 in 8.0 mi SSE 4.6 mph - N/A   Mostly Cloudy
12:58 AM 55.8 °F 55.8 °F 100% 30.12 in 8.0 mi SSE 4.6 mph - N/A   Mostly Cloudy
1:03 AM 55.4 °F 55.4 °F 100% 30.13 in 9.0 mi SSE 4.6 mph - N/A   Mostly Cloudy
1:13 AM 55.4 °F 55.4 °F 100% 30.13 in 10.0 mi SSE 4.6 mph - N/A   Mostly Cloudy
1:58 AM 55.9 °F 55.9 °F 100% 30.13 in 10.0 mi SSE 4.6 mph - N/A   Mostly Cloudy
2:40 AM 55.4 °F 55.4 °F 100% 30.14 in 5.0 mi SSE 6.9 mph - N/A Rain Light Rain
2:58 AM 55.8 °F 55.8 °F 100% 30.13 in 3.0 mi SE 5.8 mph - 0.01 in Rain Light Rain
3:13 AM 55.4 °F 55.4 °F 100% 30.14 in 4.0 mi SE 5.8 mph - N/A Rain Light Rain
3:20 AM 55.4 °F 55.4 °F 100% 30.13 in 4.0 mi SE 6.9 mph - N/A   Overcast
3:33 AM 55.4 °F 55.4 °F 100% 30.14 in 8.0 mi SE 5.8 mph - N/A   Overcast
3:53 AM 55.4 °F 55.4 °F 100% 30.14 in 10.0 mi SE 5.8 mph - N/A   Overcast
3:58 AM 55.8 °F 55.8 °F 100% 30.12 in 10.0 mi SE 5.8 mph - N/A   Overcast
4:38 AM 55.4 °F 55.4 °F 100% 30.14 in 10.0 mi SE 6.9 mph - N/A   Overcast
4:48 AM 55.4 °F 55.4 °F 100% 30.14 in 10.0 mi SE 6.9 mph - N/A   Overcast
4:58 AM 56.1 °F 56.1 °F 100% 30.13 in 10.0 mi SSE 5.8 mph - N/A   Overcast
5:08 AM 55.4 °F 55.4 °F 100% 30.15 in 7.0 mi SE 4.6 mph - N/A   Overcast
5:20 AM 55.4 °F 55.4 °F 100% 30.15 in 6.0 mi SE 6.9 mph - N/A Rain Light Rain
5:40 AM 55.4 °F 55.4 °F 100% 30.15 in 10.0 mi SE 5.8 mph - N/A   Overcast
5:58 AM 56.1 °F 56.1 °F 100% 30.15 in 10.0 mi SE 4.6 mph - 0.00 in   Overcast
6:13 AM 55.4 °F 55.4 °F 100% 30.16 in 10.0 mi ESE 1.2 mph - N/A   Overcast
6:15 AM 55.4 °F 55.4 °F 100% 30.16 in 10.0 mi ESE 1.2 mph - N/A   Overcast
6:58 AM 56.3 °F 56.3 °F 100% 30.16 in 10.0 mi SE 3.5 mph - N/A   Overcast
7:29 AM 57.2 °F 57.2 °F 100% 30.17 in 10.0 mi SE 4.6 mph - N/A   Overcast
7:43 AM 57.2 °F 57.2 °F 100% 30.18 in 10.0 mi East 3.5 mph - N/A   Overcast
7:58 AM 57.0 °F 57.0 °F 100% 30.17 in 10.0 mi ESE 3.5 mph - N/A   Overcast
8:58 AM 58.6 °F 58.6 °F 100% 30.17 in 10.0 mi SSE 5.8 mph - N/A   Mostly Cloudy
9:03 AM 59.0 °F 59.0 °F 100% 30.19 in 10.0 mi SE 5.8 mph - N/A   Mostly Cloudy
9:58 AM 61.5 °F 61.5 °F 100% 30.19 in 10.0 mi SSE 3.5 mph - 0.00 in Rain Light Rain
10:08 AM 62.6 °F 62.6 °F 100% 30.20 in 10.0 mi Calm Calm - N/A   Mostly Cloudy
10:22 AM 64.4 °F 62.6 °F 94% 30.19 in 10.0 mi Variable 1.2 mph - N/A   Mostly Cloudy
10:58 AM 64.2 °F 61.5 °F 91% 30.18 in 10.0 mi Variable 1.2 mph - 0.01 in   Mostly Cloudy
11:38 AM 64.4 °F 60.8 °F 88% 30.17 in 10.0 mi WNW 6.9 mph - N/A   Mostly Cloudy
11:58 AM 65.8 °F 61.5 °F 86% 30.15 in 10.0 mi NW 8.1 mph - N/A   Mostly Cloudy
12:58 PM 67.1 °F 59.7 °F 77% 30.13 in 10.0 mi NW 10.4 mph - N/A   Scattered Clouds
1:58 PM 65.3 °F 59.4 °F 81% 30.12 in 10.0 mi WNW 10.4 mph - N/A   Scattered Clouds
2:58 PM 65.5 °F 57.6 °F 76% 30.12 in 10.0 mi NW 10.4 mph - N/A   Scattered Clouds
3:58 PM 64.2 °F 56.7 °F 76% 30.12 in 10.0 mi NW 8.1 mph - N/A   Scattered Clouds
4:58 PM 58.8 °F 56.7 °F 93% 30.12 in 10.0 mi WNW 4.6 mph - N/A   Scattered Clouds
5:58 PM 55.4 °F 55.0 °F 99% 30.14 in 10.0 mi West 4.6 mph - N/A   Partly Cloudy
6:58 PM 55.6 °F 55.6 °F 100% 30.15 in 10.0 mi West 6.9 mph - N/A   Partly Cloudy
7:53 PM 53.6 °F 53.6 °F 100% 30.18 in 2.0 mi NW 3.5 mph - N/A   Scattered Clouds
7:58 PM 53.1 °F 53.1 °F 100% 30.17 in 1.0 mi NW 4.6 mph - N/A   Mostly Cloudy
8:03 PM 51.8 °F 51.8 °F 100% 30.18 in 0.5 mi NW 3.5 mph - N/A Fog Fog
8:18 PM 51.8 °F 51.8 °F 100% 30.18 in 0.2 mi WNW 3.5 mph - N/A Fog Fog
8:34 PM 53.6 °F 53.6 °F 100% 30.18 in 0.2 mi Calm Calm - N/A Fog Fog
8:39 PM 53.6 °F 53.6 °F 100% 30.19 in 0.2 mi Calm Calm - N/A Fog Fog
8:58 PM 52.7 °F 52.7 °F 100% 30.19 in 0.2 mi West 2.3 mph - N/A Fog Fog
9:28 PM 53.6 °F 53.6 °F 100% 30.19 in 0.2 mi WNW 3.5 mph - N/A Fog Fog
9:58 PM 54.0 °F 54.0 °F 100% 30.18 in 0.2 mi West 3.5 mph - N/A Fog Fog
10:18 PM 55.4 °F 55.4 °F 100% 30.20 in 0.2 mi West 3.5 mph - N/A Fog Fog
10:58 PM 53.8 °F 53.8 °F 100% 30.19 in 0.2 mi Calm Calm - N/A Fog Fog
11:38 PM 55.4 °F 55.4 °F 100% 30.19 in 0.2 mi SE 2.3 mph - N/A Fog Fog
11:58 PM 54.5 °F 54.5 °F 100% 30.19 in 0.2 mi Calm Calm - N/A Fog Fog